When you browse on this site, cookies collect data to enhance your experience and personalize the content and advertising you see.
Visit our Privacy Policy to learn more. By continuing to use the site, you agree to this use of cookies and data.
  • In Spain
  • List of Countries
  • For 7 days
  • Water Temperature
  • Satellite Maps
  • Weather Map
  • Weather Widgets
  • user-avatar
    Login

    Hourly Weather Velino

    Today, 20 May, Monday

    Time Temperature Precipitation Wind Pressure Humidity
    00:00 +14°C° 0 mm 2 mps 744 mmHg 81%
    01:00 +13°C° 0 mm 3 mps 744 mmHg 82%
    02:00 +13°C° 0 mm 2 mps 744 mmHg 81%
    03:00 +13°C° 0 mm 2 mps 744 mmHg 81%
    04:00 +13°C° 0 mm 2 mps 744 mmHg 81%
    05:00 +13°C° 0 mm 2 mps 744 mmHg 82%
    06:00 +14°C° 0 mm 3 mps 745 mmHg 77%
    07:00 +18°C° 0 mm 3 mps 745 mmHg 72%
    08:00 +20°C° 0 mm 3 mps 745 mmHg 67%
    09:00 +21°C° 0 mm 4 mps 745 mmHg 61%
    10:00 +22°C° 0 mm 4 mps 745 mmHg 56%
    11:00 +23°C° 0 mm 5 mps 745 mmHg 50%
    12:00 +23°C° 0 mm 5 mps 745 mmHg 50%
    13:00 +25°C° 0 mm 4 mps 745 mmHg 49%
    14:00 +25°C° 0 mm 4 mps 745 mmHg 49%
    15:00 +25°C° 0 mm 4 mps 744 mmHg 52%
    16:00 +24°C° 0 mm 3 mps 744 mmHg 56%
    17:00 +24°C° 0 mm 3 mps 744 mmHg 60%
    18:00 +21°C° 0 mm 3 mps 744 mmHg 65%
    19:00 +19°C° 0 mm 3 mps 744 mmHg 71%
    20:00 +17°C° 0 mm 2 mps 744 mmHg 76%
    21:00 +16°C° 0 mm 2 mps 744 mmHg 78%
    22:00 +16°C° 0 mm 3 mps 744 mmHg 79%
    23:00 +14°C° 0 mm 3 mps 744 mmHg 81%

    Tomorrow, 21 May, Tuesday

    Time Temperature Precipitation Wind Pressure Humidity
    00:00 +13°C° 0 mm 3 mps 744 mmHg 82%
    01:00 +13°C° 0 mm 3 mps 744 mmHg 83%
    02:00 +13°C° 0 mm 3 mps 744 mmHg 84%
    03:00 +13°C° 0 mm 3 mps 744 mmHg 84%
    04:00 +13°C° 0 mm 3 mps 744 mmHg 83%
    05:00 +13°C° 0 mm 3 mps 744 mmHg 83%
    06:00 +14°C° 0 mm 4 mps 744 mmHg 76%
    07:00 +16°C° 0 mm 5 mps 744 mmHg 70%
    08:00 +17°C° 0 mm 5 mps 744 mmHg 63%
    09:00 +19°C° 0 mm 5 mps 743 mmHg 61%
    10:00 +20°C° 0 mm 6 mps 743 mmHg 59%
    11:00 +22°C° 0 mm 6 mps 743 mmHg 56%
    12:00 +22°C° 0 mm 6 mps 743 mmHg 57%
    13:00 +23°C° 0 mm 5 mps 743 mmHg 57%
    14:00 +23°C° 0 mm 5 mps 742 mmHg 58%
    15:00 +23°C° 0 mm 5 mps 742 mmHg 60%
    16:00 +23°C° 0 mm 4 mps 742 mmHg 63%
    17:00 +23°C° 0 mm 4 mps 741 mmHg 65%
    18:00 +21°C° 0 mm 4 mps 741 mmHg 71%
    19:00 +19°C° 0 mm 3 mps 741 mmHg 76%
    20:00 +18°C° 0 mm 3 mps 741 mmHg 82%
    21:00 +17°C° 0 mm 3 mps 741 mmHg 81%
    22:00 +16°C° 0 mm 3 mps 741 mmHg 80%
    23:00 +14°C° 0 mm 3 mps 741 mmHg 80%

    Day after tomorrow, 22 May, Wednesday

    Time Temperature Precipitation Wind Pressure Humidity
    00:00 +14°C° 0 mm 3 mps 740 mmHg 82%
    01:00 +13°C° 0 mm 3 mps 740 mmHg 85%
    02:00 +12°C° 0 mm 3 mps 740 mmHg 88%
    03:00 +13°C° 0 mm 3 mps 740 mmHg 89%
    04:00 +14°C° 0 mm 2 mps 740 mmHg 91%
    05:00 +14°C° 0 mm 2 mps 739 mmHg 92%
    06:00 +15°C° 0 mm 2 mps 739 mmHg 88%
    07:00 +17°C° 0 mm 2 mps 739 mmHg 84%
    08:00 +18°C° 0 mm 2 mps 739 mmHg 80%
    09:00 +20°C° 0 mm 2 mps 739 mmHg 77%
    10:00 +21°C° 0 mm 3 mps 739 mmHg 74%
    11:00 +22°C° 0 mm 3 mps 739 mmHg 71%
    12:00 +22°C° 0.3 mm 3 mps 738 mmHg 69%
    13:00 +24°C° 0.3 mm 3 mps 738 mmHg 67%
    14:00 +24°C° 0.3 mm 3 mps 738 mmHg 65%
    15:00 +24°C° 0 mm 3 mps 738 mmHg 65%
    16:00 +24°C° 0 mm 3 mps 737 mmHg 64%
    17:00 +24°C° 0 mm 2 mps 737 mmHg 64%
    18:00 +23°C° 0.1 mm 2 mps 737 mmHg 71%
    19:00 +20°C° 0.1 mm 2 mps 737 mmHg 77%
    20:00 +18°C° 0.1 mm 2 mps 737 mmHg 84%
    21:00 +17°C° 0 mm 2 mps 737 mmHg 86%
    22:00 +17°C° 0 mm 2 mps 737 mmHg 88%
    23:00 +16°C° 0 mm 2 mps 737 mmHg 90%

    23 May, Thursday

    Time Temperature Precipitation Wind Pressure Humidity
    00:00 +15°C° 0 mm 2 mps 737 mmHg 90%
    01:00 +15°C° 0 mm 2 mps 737 mmHg 91%
    02:00 +15°C° 0 mm 2 mps 737 mmHg 92%
    03:00 +15°C° 0 mm 2 mps 737 mmHg 91%
    04:00 +15°C° 0 mm 1 mps 737 mmHg 90%
    05:00 +15°C° 0 mm 1 mps 737 mmHg 90%
    06:00 +17°C° 0 mm 2 mps 737 mmHg 84%
    07:00 +19°C° 0 mm 2 mps 737 mmHg 78%
    08:00 +20°C° 0 mm 2 mps 737 mmHg 72%
    09:00 +23°C° 0 mm 2 mps 737 mmHg 67%
    10:00 +24°C° 0 mm 3 mps 737 mmHg 62%
    11:00 +25°C° 0 mm 3 mps 737 mmHg 57%
    12:00 +25°C° 0 mm 3 mps 737 mmHg 55%
    13:00 +25°C° 0 mm 3 mps 737 mmHg 54%
    14:00 +26°C° 0 mm 3 mps 736 mmHg 52%
    15:00 +25°C° 0 mm 3 mps 736 mmHg 55%
    16:00 +25°C° 0 mm 3 mps 736 mmHg 58%
    17:00 +25°C° 0 mm 3 mps 736 mmHg 60%
    18:00 +23°C° 0 mm 2 mps 736 mmHg 65%
    19:00 +20°C° 0 mm 2 mps 736 mmHg 71%
    20:00 +18°C° 0 mm 2 mps 736 mmHg 76%
    21:00 +19°C° 0 mm 1 mps 736 mmHg 77%
    22:00 +18°C° 0 mm 1 mps 736 mmHg 79%
    23:00 +16°C° 0 mm 1 mps 736 mmHg 80%

    24 May, Friday

    Time Temperature Precipitation Wind Pressure Humidity
    00:00 +16°C° 0 mm 1 mps 736 mmHg 81%
    01:00 +15°C° 0 mm 1 mps 736 mmHg 82%
    02:00 +15°C° 0 mm 1 mps 736 mmHg 84%
    03:00 +15°C° 0 mm 1 mps 736 mmHg 84%
    04:00 +15°C° 0 mm 1 mps 736 mmHg 83%
    05:00 +16°C° 0 mm 1 mps 735 mmHg 83%
    06:00 +18°C° 0 mm 1 mps 735 mmHg 81%
    07:00 +18°C° 0 mm 2 mps 735 mmHg 79%
    08:00 +19°C° 0 mm 2 mps 736 mmHg 77%
    09:00 +20°C° 0.5 mm 2 mps 735 mmHg 74%
    10:00 +21°C° 0.5 mm 2 mps 735 mmHg 71%
    11:00 +23°C° 0.5 mm 2 mps 735 mmHg 68%
    12:00 +24°C° 0.2 mm 1 mps 735 mmHg 64%
    13:00 +25°C° 0.2 mm 1 mps 735 mmHg 59%
    14:00 +24°C° 0.2 mm 0 mps 735 mmHg 55%
    15:00 +23°C° 0.3 mm 0 mps 735 mmHg 57%
    16:00 +23°C° 0.3 mm 0 mps 734 mmHg 59%
    17:00 +22°C° 0.3 mm 0 mps 734 mmHg 61%
    18:00 +22°C° 0.9 mm 1 mps 734 mmHg 68%
    19:00 +21°C° 0.9 mm 1 mps 734 mmHg 76%
    20:00 +18°C° 0.9 mm 2 mps 734 mmHg 83%
    21:00 +17°C° 0.5 mm 2 mps 734 mmHg 86%
    22:00 +16°C° 0.5 mm 2 mps 733 mmHg 89%
    23:00 +16°C° 0.5 mm 2 mps 733 mmHg 91%

    25 May, Saturday

    Time Temperature Precipitation Wind Pressure Humidity
    00:00 +15°C° 0.2 mm 2 mps 733 mmHg 92%
    01:00 +15°C° 0.2 mm 2 mps 733 mmHg 93%
    02:00 +15°C° 0.2 mm 2 mps 733 mmHg 94%
    03:00 +15°C° 0.4 mm 2 mps 733 mmHg 94%
    04:00 +15°C° 0.4 mm 2 mps 733 mmHg 95%
    05:00 +15°C° 0.4 mm 2 mps 733 mmHg 95%
    06:00 +16°C° 1.4 mm 2 mps 733 mmHg 93%
    07:00 +17°C° 1.4 mm 2 mps 733 mmHg 91%
    08:00 +18°C° 1.4 mm 2 mps 733 mmHg 88%
    09:00 +19°C° 1.5 mm 2 mps 733 mmHg 83%
    10:00 +20°C° 1.5 mm 2 mps 733 mmHg 78%
    11:00 +23°C° 1.5 mm 2 mps 733 mmHg 72%
    12:00 +21°C° 1.5 mm 2 mps 733 mmHg 75%
    13:00 +21°C° 1.5 mm 3 mps 733 mmHg 78%
    14:00 +20°C° 1.5 mm 3 mps 733 mmHg 81%
    15:00 +20°C° 0.3 mm 3 mps 732 mmHg 81%
    16:00 +20°C° 0.3 mm 4 mps 732 mmHg 81%
    17:00 +20°C° 0.3 mm 4 mps 732 mmHg 81%
    18:00 +19°C° 0.1 mm 4 mps 732 mmHg 84%
    19:00 +18°C° 0.1 mm 3 mps 732 mmHg 87%
    20:00 +17°C° 0.1 mm 3 mps 732 mmHg 90%
    21:00 +16°C° 0 mm 3 mps 732 mmHg 92%
    22:00 +16°C° 0 mm 3 mps 732 mmHg 94%
    23:00 +14°C° 0 mm 4 mps 732 mmHg 96%
    Show more